Miscellaneous Local Product
Issued by NWS Hastings, NE

Home | Current Version | Previous Version | Graphics & Text | Print | Product List | Glossary On
Versions: 1 2 3 4 5 6 7 8 9 10 11 12 13 14 15 16 17 18 19 20 21 22 23 24 25 26 27 28 29 30 31 32 33 34 35 36 37 38 39 40 41 42 43 44 45 46 47 48 49 50
000
AXUS43 KGID 220702
MISGRI

GID CWA HOURLY WEATHER ROUNDUP
NATIONAL WEATHER SERVICE HASTINGS NE
200 AM CDT FRI MAY 22 2015

NOTE: "FAIR" INDICATES FEW OR NO CLOUDS BELOW 12,000 FEET WITH NO
SIGNIFICANT WEATHER AND/OR OBSTRUCTIONS TO VISIBILITY.

...SOUTH CENTRAL NEBRASKA...

CITY           SKY/WX    TMP DP  RH WIND       PRES   REMARKS
GRAND ISLAND   MOCLDY    50  40  68 CALM      30.23S
HASTINGS       MOCLDY    51  40  65 CALM      30.22S
KEARNEY        MOCLDY    50  39  66 CALM      30.22F
ORD            CLEAR     41  36  82 CALM      30.21S
YORK           MOCLDY    48  45  87 CALM      30.23S
AURORA         MOCLDY    51  40  65 SW3       30.22F
LEXINGTON      MOCLDY    47  42  80 S6        30.21S
HOLDREGE       CLOUDY    48  40  72 S3        30.21F
HEBRON         CLOUDY    49  44  83 CALM      30.23S

...NEBRASKA PANHANDLE...

CITY           SKY/WX    TMP DP  RH WIND       PRES   REMARKS
CHADRON        CLOUDY    53  44  71 SE14      30.10F
ALLIANCE       CLOUDY    50  43  77 SE12      30.11F
SCOTTSBLUFF    CLOUDY    52  45  77 SE12      30.10F
SIDNEY         CLOUDY    49  44  83 SE10      30.14S

...WESTERN AND NORTH CENTRAL NEBRASKA...

CITY           SKY/WX    TMP DP  RH WIND       PRES   REMARKS
VALENTINE      CLEAR     48  38  68 S6        30.18F
AINSWORTH      CLEAR     44  37  78 S6        30.20S
ONEILL         CLEAR     47  38  70 SW5       30.21S
BROKEN BOW     CLEAR     42  39  89 N3        30.20F
IMPERIAL       CLOUDY    48  45  89 SE7       30.17F
NORTH PLATTE   MOCLDY    48  41  76 SE5       30.19F
MCCOOK         MOCLDY    48  44  86 SE6       30.20S

...EASTERN NEBRASKA...

CITY           SKY/WX    TMP DP  RH WIND       PRES   REMARKS
NORFOLK        CLEAR     50  38  63 W6        30.20S
SO SIOUX CITY  CLEAR     53  38  56 NW3       30.18R
TEKAMAH        CLEAR     55  40  56 SW8       30.18S
COLUMBUS       CLEAR     46  36  66 NW3       30.24S
ALBION         CLEAR     49  36  60 CALM      30.22R
OMAHA EPPLEY   PTCLDY    59  41  51 SW3       30.20R
OFFUTT AFB     PTCLDY    54  41  63 W3        30.20R
MILLARD        PTCLDY    53  44  71 CALM      30.20R
LINCOLN        PTCLDY    54  42  64 W3        30.23S
NEBRASKA CITY  PTCLDY    52  40  63 W9        30.21R
BEATRICE       PTCLDY    49  43  79 CALM      30.22F
FALLS CITY     PTCLDY    51  44  77 NW5       30.20F

...NORTHERN KANSAS...

CITY           SKY/WX    TMP DP  RH WIND       PRES   REMARKS
GOODLAND       CLOUDY    49  46  90 SE8       30.17F
HILL CITY      CLOUDY    48  44  86 E3        30.21S
NORTON         SUNNY     48  41  76 CALM      30.19F
PHILLIPSBURG   CLEAR     50  45  81 NE5       30.21F
SMITH CENTER   CLEAR     46  43  87 E5        30.22S
HAYS           CLOUDY    48  39  71 E5        30.20F
RUSSELL        MOCLDY    48  45  89 SE7       30.20S
CONCORDIA      PTCLDY    48  42  80 NE3       30.22S
SALINA         CLEAR     51  45  79 CALM      30.22S
TOPEKA         PTCLDY    51  47  86 CALM      30.23F



USA.gov is the U.S. government's official web portal to all federal, state and local government web resources and services.